sat.trackr.live / text

‹ back to catalog

STARLINK-31927

NORAD 59837 · 2024-097C

PAYLOAD ACTIVE UNKNOWN

§ Identity

Operator
Country
US
Launch date
2024-05-23
Launch site
AFETR
Launch vehicle
Mass (kg)
RCS (m²)

Purposes: comms

External: N2YO · Heavens-Above · Gunter

§ Orbital elements

Epoch: 2026-09-21T10:29:40.632576Z

Period
94.27 min
Inclination
43.0015°
Eccentricity
0.0001197
Mean motion
15.27580721 rev/d
Perigee alt
482.2 km
Apogee alt
483.9 km
Semi-major
6,861.2 km
B*
4.2575e-5
RAAN
248.9031°
Arg perigee
267.5153°
Mean anomaly
92.5561°
Rev number
13,185

§ Raw data

STARLINK-319271 59837U 24097C   26264.43727584  .00000910  00000+0  42575-4 0  99902 59837  43.0015 248.9031 0001197 267.5153  92.5561 15.27580721131855

JSON: /api/v1/satellites/59837 · /tle

For live sub-satellite position, see the globe view (requires WebGL).

§ Visibility from observer

Set your observer location to see the next 7 days of passes ≥ 10°. The values pass through the URL so the page stays shareable.

No JS? Fill the form by hand. The geolocation button needs JavaScript.